Content
SEND FEEDBACK

Daily
Averages
Monthly
Summary
United States of America

SPEARMAN, TEXAS


Home > North America > United States > Texas
Elevation: 3100 feet     Latitude: 36 11N     Longitude: 101 11W

WEATHER
 
SELECT A DAY
Number of Records: 276,575;   Date Range: 1/21/03 - 8/30/14
 
SHARE

PRINT THIS DATA

[ ← Previous Day ]
WEATHER ALMANAC - JANUARY 31, 2013
[ Next Day → ]
[ °C ]   °F
Weather ElementAverageHighLow
Temperature34.3 °F50 °F (12:55 pm)21.2 °F (3:35 am)
Dewpoint19.8 °F28.4 °F (4:35 pm)14 °F (1:35 am)
Humidity58.4 %86 % (10:55 pm)32 % (12:15 pm)
Barometer30.11 in30.29 in (11:55 pm)29.96 in (3:55 am)
Wind Speed11 mph19.6 mph (11:15 am)
Wind Gust26.5 mph (1:15 pm)
Weather ElementAverage
Visibility10 mi
Wind DirectionSSE (158 °)

Weather ElementTotal
Precipitation---
Heating Degree Days29.4 (Base 65)
Averaged from 71 records on January 31, 2013
WEATHER CONDITIONS BREAKOUT
WIND DIRECTION BREAKOUT
WEATHER BY HOUR - JANUARY 31, 2013
[ °C ]   °F
Local TimeTemperatureDewpointHumidityBarometerVisibilityWind DirectionWind SpeedGust SpeedPrecipitationEventsConditions
12:35 AM30.2 °F15.8 °F55 %29.98 in10.0 miWSW (250°)4.6 mphClear
12:55 AM28.4 °F15.8 °F59 %29.99 in10.0 miSW (230°)5.8 mphClear
1:15 AM28.4 °F15.8 °F59 %29.99 in10.0 miSW (230°)8.1 mphClear
1:35 AM26.6 °F14.0 °F59 %29.98 in10.0 miSW (230°)4.6 mphClear
1:55 AM26.6 °F15.8 °F64 %29.98 in10.0 miWSW (240°)6.9 mphClear
2:15 AM26.6 °F14.0 °F59 %29.98 in10.0 miWSW (250°)6.9 mphClear
2:35 AM24.8 °F14.0 °F64 %29.98 in10.0 miCalmClear
2:55 AM26.6 °F15.8 °F64 %29.98 in10.0 miSW (230°)5.8 mphClear
3:15 AM23.0 °F14.0 °F68 %29.98 in10.0 miSW (220°)5.8 mphClear
3:35 AM21.2 °F14.0 °F74 %29.97 in10.0 miSW (230°)8.1 mphClear
3:55 AM23.0 °F15.8 °F74 %29.96 in10.0 miSSW (200°)6.9 mphClear
4:15 AM23.0 °F15.8 °F74 %29.96 in10.0 miSW (230°)8.1 mphClear
4:35 AM23.0 °F15.8 °F74 %29.97 in10.0 miWest (260°)8.1 mphClear
4:55 AM26.6 °F19.4 °F74 %29.97 in10.0 miWest (260°)10.4 mphClear
5:15 AM24.8 °F17.6 °F74 %29.97 in10.0 miSW (230°)8.1 mphClear
5:35 AM23.0 °F17.6 °F80 %29.98 in10.0 miWSW (250°)5.8 mphClear
5:55 AM23.0 °F17.6 °F80 %29.98 in10.0 miWest (270°)8.1 mphClear
6:15 AM23.0 °F17.6 °F80 %29.98 in10.0 miCalmClear
6:35 AM23.0 °F17.6 °F80 %29.98 in10.0 miWest (260°)3.5 mphClear
6:55 AM23.0 °F15.8 °F74 %29.98 in10.0 miSW (230°)4.6 mphClear
7:15 AM23.0 °F17.6 °F80 %29.99 in10.0 miWSW (240°)4.6 mphClear
7:35 AM23.0 °F15.8 °F74 %30.00 in10.0 miWSW (250°)6.9 mphClear
7:55 AM26.6 °F19.4 °F74 %30.02 in10.0 miWest (270°)8.1 mphClear
8:15 AM28.4 °F19.4 °F69 %30.02 in10.0 miWest (270°)11.5 mphClear
8:35 AM32.0 °F19.4 °F60 %30.02 in10.0 miWest (270°)8.1 mphClear
8:55 AM35.6 °F19.4 °F52 %30.03 in10.0 miWest (270°)9.2 mphClear
9:15 AM35.6 °F21.2 °F56 %30.05 in10.0 miWest (270°)11.5 mphClear
9:35 AM39.2 °F21.2 °F49 %30.06 in10.0 miWest (270°)11.5 mphClear
9:55 AM42.8 °F19.4 °F39 %30.07 in10.0 miWNW (300°)13.8 mphClear
10:15 AM44.6 °F19.4 °F37 %30.09 in10.0 miNW (320°)12.7 mphClear
10:35 AM46.4 °F19.4 °F34 %30.09 in10.0 miNW (320°)16.1 mph23.0 mphClear
10:55 AM46.4 °F19.4 °F34 %30.10 in10.0 miNNW (340°)18.4 mph24.2 mphClear
11:15 AM44.6 °F21.2 °F39 %30.10 in10.0 miNNW (340°)19.6 mph25.3 mphClear
11:35 AM46.4 °F19.4 °F34 %30.11 in10.0 miNorth (350°)18.4 mph24.2 mphClear
11:55 AM46.4 °F21.2 °F37 %30.11 in10.0 miNorth (350°)16.1 mphClear
12:15 PM48.2 °F19.4 °F32 %30.12 in10.0 miNorth (10°)16.1 mph24.2 mphClear
12:35 PM48.2 °F21.2 °F34 %30.11 in10.0 miNNE (20°)13.8 mphClear
12:55 PM50.0 °F21.2 °F32 %30.12 in10.0 miNNE (20°)16.1 mph23.0 mphClear
1:15 PM50.0 °F21.2 °F32 %30.12 in10.0 miNorth (10°)18.4 mph26.5 mphClear
1:35 PM48.2 °F21.2 °F34 %30.14 in10.0 miNNE (20°)16.1 mph25.3 mphClear
1:55 PM48.2 °F23.0 °F37 %30.12 in10.0 miNNE (30°)19.6 mph25.3 mphClear
2:15 PM48.2 °F21.2 °F34 %30.12 in10.0 miNNE (30°)19.6 mph24.2 mphClear
2:35 PM48.2 °F23.0 °F37 %30.12 in10.0 miNE (40°)19.6 mph24.2 mphClear
2:55 PM48.2 °F23.0 °F37 %30.14 in10.0 miNE (40°)17.3 mph26.5 mphClear
3:15 PM48.2 °F24.8 °F40 %30.16 in10.0 miNE (40°)17.3 mph21.9 mphClear
3:35 PM48.2 °F24.8 °F40 %30.17 in10.0 miNE (40°)11.5 mph20.7 mphClear
3:55 PM46.4 °F26.6 °F46 %30.18 in10.0 miENE (60°)10.4 mph17.3 mphClear
4:15 PM48.2 °F26.6 °F43 %30.18 in10.0 miNE (40°)15.0 mphClear
4:35 PM46.4 °F28.4 °F50 %30.19 in10.0 miNE (50°)13.8 mph20.7 mphClear
4:55 PM46.4 °F26.6 °F46 %30.19 in10.0 miENE (60°)11.5 mph16.1 mphClear
5:15 PM44.6 °F24.8 °F46 %30.21 in10.0 miENE (70°)15.0 mph19.6 mphClear
5:35 PM44.6 °F24.8 °F46 %30.21 in10.0 miEast (80°)13.8 mphClear
5:55 PM42.8 °F23.0 °F46 %30.22 in10.0 miEast (80°)10.4 mphClear
6:15 PM39.2 °F23.0 °F52 %30.24 in10.0 miEast (90°)6.9 mphClear
6:35 PM37.4 °F23.0 °F56 %30.24 in10.0 miEast (90°)9.2 mphClear
6:55 PM33.8 °F23.0 °F65 %30.25 in10.0 miEast (100°)9.2 mphClear
7:15 PM33.8 °F21.2 °F60 %30.26 in10.0 miEast (90°)10.4 mphClear
7:35 PM32.0 °F21.2 °F64 %30.26 in10.0 miEast (100°)12.7 mphClear
7:55 PM32.0 °F21.2 °F64 %30.26 in10.0 miEast (90°)12.7 mphClear
8:15 PM32.0 °F21.2 °F64 %30.26 in10.0 miEast (90°)11.5 mphClear
8:35 PM30.2 °F21.2 °F69 %30.26 in10.0 miEast (90°)11.5 mphClear
8:55 PM28.4 °F21.2 °F74 %30.27 in10.0 miEast (90°)12.7 mphClear
9:15 PM28.4 °F19.4 °F69 %30.27 in10.0 miEast (90°)13.8 mphClear
9:35 PM26.6 °F19.4 °F74 %30.27 in10.0 miEast (90°)10.4 mphClear
9:55 PM26.6 °F19.4 °F74 %30.27 in10.0 miEast (90°)11.5 mphClear
10:15 PM24.8 °F19.4 °F80 %30.27 in10.0 miEast (90°)12.7 mphClear
10:35 PM24.8 °F19.4 °F80 %30.26 in10.0 miEast (90°)12.7 mphClear
10:55 PM23.0 °F19.4 °F86 %30.26 in10.0 miEast (100°)11.5 mphClear
11:15 PM23.0 °F17.6 °F80 %30.27 in10.0 miESE (110°)9.2 mphClear
11:35 PM23.0 °F17.6 °F80 %30.28 in10.0 miSE (130°)8.1 mphClear
11:55 PM21.2 °F17.6 °F86 %30.29 in10.0 miSE (130°)10.4 mphClear
Hourly data recorded from KPYX, located miles away from Spearman, Texas







STORIES FROM OUR PARTNERS